Showing default

COSMOS 2504, 40555

Orbit data source: Space-Track

COSMOS 2504, 40555 is a payload satellite owned by TsNIIKhM (CIS) in LEO that was launched on Tue, 31 Mar 2015 UTC via an ROKOT launch vehicle from the Plesetsk Missile And Space Complex (PKMTR). Payload-class satellites include a variety of spacecraft equipped with specific instruments for various scientific and technological missions. These include communications satellites like Starlink; space stations such as the ISS; scientific satellites like the Hubble; Earth observation satellites from companies like Planet Labs, Umbra, and HawkEye 360; GPS; miniature CubeSats for education and research; and military/defense satellites.

Loading next visibility...
Identifier
40555, 2015-020D
Orbit
LEO
Country
Flag of CISCIS
Related business
Manufacturer
TsNIIKhM
Mission
Operational Defense Technology
Bus & Motor
NIVELIR, Unknown motor
Mass
~100 kg wet, ~100 kg dry
Launch date (UTC)
2015-03-31 (10 years ago)
Launch vehicle
ROKOT
Launch site
Plesetsk Missile And Space Complex (PKMTR)
Object type
Payload
Rocket body
Debris
Shape & HBR
Hex Cyl + 1 Ant, 0.5 m
Radar Cross Section
0.352 m², Medium (>0.1 m² and < 1m²)

Expand to show TLE details & history
Last TLE update: 8 hours ago

TLE from 8 hours ago
0 COSMOS 2504
1 40555U 15020D   25243.59139268  .00000377  00000-0  13573-3 0  9995
2 40555  82.5134  95.1047 0608696 341.4876  16.4952 13.61094958510793
Epoch: 2025-08-31T14:11Z
TLE epoch observation values (Epoch: 2025-08-31T14:11:36.327Z)
Latitude
Longitude
-97.8058°
Altitude
604.474 km
Speed
7.773 km/s
True Right ascension
06h 20m 25s
True Declination
0° 00' 00"
Sunlit
Object was in daylight at epoch
Visualization orbit readout
Latitude
Unknown
Longitude
Unknown
Altitude
Unknown
Speed
Unknown
Apparent Right ascension
Unknown
Apparent Declination
Unknown
Sunlit
N/A
Visualization observer readout
Local Sidereal Time
13:54:14
Azimuth
Unknown
Elevation
Unknown
Doppler factor
Unknown
Orbital elements
Apogee altitude
1,479.747 km
Perigee altitude
578.022 km
Semi-major axis
7,407.022 km
Eccentricity
0.06087
Inclination
82.5134°
RAAN
95.1047°
Arg. of periapsis
341.4876°
True anomaly
18.63051°
Mean anomaly
16.4952°
Eccentric anomaly
17.54664°
Mean motion
3.40469 °/min
Orbital period
105.74 mins
BSTAR
0.00013573
Loading maneuver chart data...
Computing Atmospheric mass density...
Loading historical data...
Loading historical data...
Loading historical data...
Loading historical data...
Loading historical data...
Loading historical data...
Loading historical data...

Documentation

Showing up to 5 results
|